Location: Newark
(52.1031°N, 9.3600°E)
Time: 11:19:53
(UTC+00:00)

nSIGHT-1 - Pass Details

Date: 19 December 2019
Orbit: 316 x 318 km, 51.6° (Epoch: 17 January)

Event Time Altitude Azimuth Distance (km) Brightness Sun altitude
Exits shadow 04:10:42 - 85° (E) 1,324 ? -28.7°
Enters shadow 05:05:29 -70° 270° (W) 12,313 ? -20.3°
Maximum altitude 05:42:26 78° 187° (S) 330 ? -14.9°
Sets 05:47:07 0° 100° (E) 2,050 ? -14.2°
